Location: Star Dogged Moon Observatory
(29.7756°N, 82.0783°W)
Time: 02:41:55
(UTC-04:00)

Amateur Radio Satellites - All Passes

Search period start: 31 March 2015 02:11
Search period end: 01 April 2015 02:11
Location: Star Dogged Moon Observatory, 29.7756°N, 82.0783°W

Satellite Date Start Highest point End Downlink Frequencies (MHz)
Time Altitude Azimuth
KKS-1 31 Mar 02:25:22 02:26:38 11° 69° (ENE) 02:28:10 437.445
ITAMSAT 1 31 Mar 02:32:09 02:33:20 11° 91° (E) 02:34:56 435.822/435.867
YUBILEINY 31 Mar 02:32:36 02:41:10 56° 269° (W) 02:49:34 435.215
SWISSCUBE 31 Mar 02:37:35 02:42:21 65° 259° (W) 02:47:08 437.505
BEESAT 31 Mar 02:40:15 02:45:01 66° 259° (W) 02:49:48 436.000
STARS 31 Mar 02:52:21 02:54:41 15° 70° (ENE) 02:57:13 437.465
Oscar 19 31 Mar 02:58:52 03:04:04 90° 69° (ENE) 03:09:17 437.125/150
Gurwin Techsat 1B 31 Mar 03:27:41 03:32:36 39° 98° (E) 03:37:33 435.225
ITUPSAT 1 31 Mar 03:29:45 03:33:15 19° 266° (W) 03:36:36 437.325
AIST 1 31 Mar 03:40:07 03:41:30 12° 89° (E) 03:43:11
O/OREOS (USA 219) 31 Mar 03:54:17 03:58:32 40° 105° (ESE) 04:02:52 437.305
KKS-1 31 Mar 03:58:38 04:02:55 48° 260° (W) 04:07:12 437.445
VERMONT LUNAR 31 Mar 04:04:27 04:07:34 37° 145° (SE) 04:10:41 437.305
ITAMSAT 1 31 Mar 04:08:13 04:13:19 61° 285° (WNW) 04:18:23 435.822/435.867
RS-15 31 Mar 04:10:55 04:21:29 41° 52° (NE) 04:32:41 29.354- 29.394
SO-50 31 Mar 04:16:45 04:21:21 38° 58° (ENE) 04:25:56 436.795
STARS 31 Mar 04:26:51 04:30:53 35° 262° (W) 04:34:54 437.465
HORYU 2 31 Mar 04:32:49 04:37:00 38° 99° (E) 04:41:12 437.375
AO-7 31 Mar 04:46:40 04:54:01 36° 99° (E) 05:01:31 29.400- 29.500
JAS-2 31 Mar 04:59:03 05:05:55 39° 95° (E) 05:12:14 435.910
PHONESAT 2.4 31 Mar 04:59:13 05:02:34 41° 145° (SE) 05:05:55 2401.200-2431.200
Gurwin Techsat 1B 31 Mar 05:08:30 05:12:20 20° 290° (WNW) 05:15:58 435.225
AIST 1 31 Mar 05:14:41 05:18:51 39° 280° (W) 05:22:58
O/OREOS (USA 219) 31 Mar 05:35:33 05:38:12 15° 299° (WNW) 05:40:38 437.305
VERMONT LUNAR 31 Mar 05:42:16 05:45:17 30° 338° (NNW) 05:48:17 437.305
MOZHAYETS 4 31 Mar 05:45:54 05:50:29 67° 260° (W) 05:55:05
AUBIESAT-1 31 Mar 05:52:28 05:56:17 54° 71° (ENE) 06:00:29 437.475
SO-50 31 Mar 05:58:12 06:01:40 19° 250° (WSW) 06:04:54 436.795
CUBESAT XI-V 31 Mar 06:04:36 06:05:45 11° 69° (ENE) 06:07:12 437.345
HORYU 2 31 Mar 06:10:45 06:13:22 15° 290° (WNW) 06:15:47 437.375
ISS 31 Mar 06:18:11 06:21:21 54° 44° (NE) 06:24:30 145.825
M-CUBED/EXP-1 PRIME 31 Mar 06:18:32 06:22:21 57° 256° (WSW) 06:26:33 437.505
RS-15 31 Mar 06:23:04 06:34:15 52° 249° (WSW) 06:45:42 29.354- 29.394
PHONESAT 2.4 31 Mar 06:37:47 06:40:57 30° 339° (NNW) 06:44:07 2401.200-2431.200
AO-7 31 Mar 06:39:13 06:46:50 41° 293° (WNW) 06:54:21 29.400- 29.500
CUTE-I 31 Mar 06:43:48 06:47:13 18° 93° (E) 06:50:52 437.470
JAS-2 31 Mar 06:44:09 06:50:47 33° 292° (WNW) 06:56:45 435.910
Cubesat XI-IV 31 Mar 06:44:28 06:47:59 19° 94° (E) 06:51:43 437.490
GONETS M04 31 Mar 06:50:14 06:58:24 42° 77° (ENE) 07:06:41
VERMONT LUNAR 31 Mar 07:21:51 07:23:38 14° 354° (N) 07:25:25 437.305
CUSAT 1 31 Mar 07:23:54 07:25:59 13° 77° (ENE) 07:28:41 437.405
STRAND 1 31 Mar 07:32:11 07:37:15 62° 76° (ENE) 07:42:20 437.568
CUBESAT XI-V 31 Mar 07:38:09 07:42:47 56° 260° (W) 07:47:25 437.345
PRISM 31 Mar 07:39:40 07:43:50 62° 259° (W) 07:48:01 437.425
PHONESAT 2.4 31 Mar 08:17:55 08:19:59 15° 355° (N) 08:22:03 2401.200-2431.200
CUTE-I 31 Mar 08:22:31 08:27:30 41° 287° (WNW) 08:32:25 437.470
DANDE 31 Mar 08:22:35 08:26:56 38° 82° (E) 08:32:42 436.750
Cubesat XI-IV 31 Mar 08:23:19 08:28:16 40° 287° (WNW) 08:33:10 437.490
GONETS M04 31 Mar 08:47:22 08:55:05 34° 272° (W) 09:02:35
BRITE-PL 31 Mar 08:53:57 08:56:46 17° 95° (E) 08:59:52 437.365/2234.400
VERMONT LUNAR 31 Mar 09:00:00 09:02:11 16° 12° (NNE) 09:04:24 437.305
CUSAT 1 31 Mar 09:03:45 09:08:40 60° 263° (W) 09:15:11 437.405
BEESAT 3 31 Mar 09:09:33 09:11:22 13° 110° (ESE) 09:13:25 437.485
DOVE 4 31 Mar 09:11:47 09:12:59 11° 93° (E) 09:14:33 437.250
STRAND 1 31 Mar 09:15:23 09:16:55 11° 269° (W) 09:18:02 437.568
COMPASS 1 31 Mar 09:27:43 09:29:46 14° 92° (E) 09:32:02 437.405
GOMX 1 31 Mar 09:29:55 09:33:47 30° 98° (E) 09:37:55 467.674
PHONESAT 2.4 31 Mar 09:56:40 09:59:11 18° 12° (NNE) 10:01:44 2401.200-2431.200
AIST 2 31 Mar 09:58:16 10:00:05 13° 109° (ESE) 10:02:08 435.215
CANX-2 31 Mar 10:02:09 10:06:27 69° 101° (E) 10:10:44 2200.000
DANDE 31 Mar 10:06:47 10:10:17 18° 263° (W) 10:14:08 436.750
BEESAT 2 31 Mar 10:10:21 10:14:23 66° 116° (ESE) 10:18:30 435.950
CUBEBUG 2 31 Mar 10:11:42 10:14:12 15° 93° (E) 10:16:56 437.445
CINEMA 3 31 Mar 10:11:43 10:15:41 30° 97° (E) 10:19:52 145.822/145.860
HO-68 31 Mar 10:12:38 10:19:51 77° 104° (ESE) 10:27:02 435.675
CUTE 1.7 + AOD 2 31 Mar 10:15:46 10:20:06 88° 274° (W) 10:24:24 437.475
BRITE-PL 31 Mar 10:31:38 10:35:22 28° 285° (WNW) 10:39:12 437.365/2234.400
AAUSAT CUBESAT 2 31 Mar 10:32:36 10:36:50 84° 101° (E) 10:41:03 437.432
VERMONT LUNAR 31 Mar 10:37:03 10:40:20 54° 27° (NNE) 10:43:38 437.305
SEEDS 31 Mar 10:42:10 10:46:19 49° 284° (WNW) 10:50:25 437.485
BEESAT 3 31 Mar 10:45:21 10:49:08 36° 301° (WNW) 10:52:57 437.485
UKube-1 31 Mar 10:45:54 10:48:16 15° 94° (E) 10:50:51 .
DOVE 4 31 Mar 10:46:42 10:50:59 48° 284° (WNW) 10:55:30 437.250
DX 1 31 Mar 10:57:58 11:01:21 23° 96° (E) 11:04:50 434.975-435.025
UNISAT 6 31 Mar 10:58:28 11:02:20 36° 74° (ENE) 11:06:17 437.425
COMPASS 1 31 Mar 11:01:44 11:05:37 34° 286° (WNW) 11:09:26 437.405
50 SAT 31 Mar 11:06:28 11:06:48 10° 92° (E) 11:07:26 437.505
TIGRISAT 31 Mar 11:07:33 11:11:35 45° 75° (ENE) 11:15:42 435.000
GOMX 1 31 Mar 11:08:45 11:11:48 18° 287° (WNW) 11:14:47 467.674
QB50P1 31 Mar 11:12:30 11:15:56 25° 73° (ENE) 11:19:26 145.935-145.965
Oscar 11 31 Mar 11:13:03 11:17:25 73° 283° (WNW) 11:21:44 145.826/435.025
DUCHIFAT 1 31 Mar 11:13:10 11:16:34 25° 73° (ENE) 11:20:03 145.980
FUNcube-1 31 Mar 11:27:29 11:31:56 80° 102° (ESE) 11:36:27 145.935
QB50P2 31 Mar 11:27:31 11:31:27 40° 75° (ENE) 11:35:26 145.880/145.840
AIST 2 31 Mar 11:34:22 11:38:22 40° 301° (WNW) 11:42:24 435.215
PHONESAT 2.4 31 Mar 11:34:28 11:37:58 63° 28° (NNE) 11:41:29 2401.200-2431.200
DELFI C3 31 Mar 11:35:03 11:39:00 47° 284° (WNW) 11:42:54 145.870
UWE-3 31 Mar 11:37:14 11:41:40 60° 283° (WNW) 11:46:10 435.000/436.395/437.385
ANTELSAT 31 Mar 11:38:45 11:42:58 66° 259° (W) 11:47:15 437.575/2403.000
ZACube-1 31 Mar 11:41:12 11:45:37 68° 283° (WNW) 11:50:07 437.345
CUBEBUG 1 31 Mar 11:41:47 11:43:18 12° 92° (E) 11:45:05 437.445
BUGSAT 1 31 Mar 11:43:55 11:47:52 43° 75° (ENE) 11:51:48 437.445
VELOX 1 31 Mar 11:45:45 11:49:45 34° 98° (E) 11:53:47 145.980
CUBEBUG 2 31 Mar 11:46:51 11:51:00 37° 285° (WNW) 11:55:14 437.445
CINEMA 3 31 Mar 11:49:29 11:52:44 19° 287° (WNW) 11:55:56 145.822/145.860
AISAT 31 Mar 11:51:13 11:55:24 42° 99° (E) 11:59:35 437.250
POPSAT HIP 1 31 Mar 11:55:30 11:59:43 87° 252° (WSW) 12:03:57 437.405
HO-68 31 Mar 12:02:39 12:06:56 16° 297° (WNW) 12:10:47 435.675
NANOSAT C BR1 31 Mar 12:05:16 12:09:27 65° 259° (W) 12:13:38 145.865
POLYITAN 1 31 Mar 12:11:31 12:15:39 52° 260° (W) 12:19:46 437.675
VERMONT LUNAR 31 Mar 12:15:28 12:17:50 18° 219° (SW) 12:20:10 437.305
HUMSAT D 31 Mar 12:15:49 12:20:01 52° 283° (WNW) 12:24:12 437.325/437.525
UKube-1 31 Mar 12:20:39 12:24:32 33° 287° (WNW) 12:28:22 .
ESTCUBE 1 31 Mar 12:27:38 12:32:03 55° 100° (E) 12:36:27 437.505/2401.250
DX 1 31 Mar 12:34:08 12:37:32 22° 288° (WNW) 12:40:47 434.975-435.025
UNISAT 6 31 Mar 12:37:14 12:39:20 13° 268° (W) 12:41:11 437.425
50 SAT 31 Mar 12:38:07 12:41:56 41° 285° (WNW) 12:45:45 437.505
QB50P1 31 Mar 12:48:48 12:51:49 18° 266° (W) 12:54:41 145.935-145.965
DUCHIFAT 1 31 Mar 12:49:23 12:52:24 18° 265° (W) 12:55:17 145.980
TISAT 1 31 Mar 12:59:03 13:02:05 20° 95° (E) 13:05:14 437.305
QB50P2 31 Mar 13:06:05 13:07:36 11° 268° (W) 13:08:49 145.880/145.840
JUGNU 31 Mar 13:07:30 13:11:56 22° 167° (SSE) 13:16:27 437.505
PHONESAT 2.4 31 Mar 13:13:42 13:16:05 17° 219° (SW) 13:18:24 2401.200-2431.200
CUBEBUG 1 31 Mar 13:15:50 13:19:54 40° 286° (WNW) 13:23:55 437.445
SPROUT 31 Mar 13:16:28 13:20:32 41° 99° (E) 13:24:36 437.525
BUGSAT 1 31 Mar 13:23:01 13:23:36 10° 268° (W) 13:23:52 437.445
VELOX 1 31 Mar 13:23:26 13:26:05 15° 290° (WNW) 13:28:33 145.980
AISAT 31 Mar 13:29:37 13:31:41 13° 290° (WNW) 13:33:29 437.250
YUBILEINY 31 Mar 13:29:58 13:37:31 35° 88° (E) 13:45:20 435.215
PCSat 31 Mar 13:53:58 13:58:10 24° 108° (ESE) 14:02:33 145.827
ITUPSAT 1 31 Mar 13:59:18 14:01:31 14° 92° (E) 14:04:02 437.325
ESTCUBE 1 31 Mar 14:07:50 14:08:31 10° 291° (WNW) 14:08:53 437.505/2401.250
Oscar 19 31 Mar 14:09:40 14:14:44 70° 76° (ENE) 14:19:51 437.125/150
O/OREOS (USA 219) 31 Mar 14:10:31 14:14:26 29° 66° (ENE) 14:18:22 437.305
SRMSAT 31 Mar 14:11:19 14:15:12 18° 165° (SSE) 14:19:10 437.500
TISAT 1 31 Mar 14:34:27 14:37:51 23° 287° (WNW) 14:41:09 437.305
Gurwin Techsat 1B 31 Mar 14:42:58 14:47:40 34° 73° (ENE) 14:52:29 435.225
SWISSCUBE 31 Mar 14:44:07 14:48:48 53° 100° (E) 14:53:26 437.505
BEESAT 31 Mar 14:46:42 14:51:21 51° 100° (E) 14:55:59 436.000
SPROUT 31 Mar 14:54:31 14:56:18 12° 290° (WNW) 14:57:51 437.525
JUGNU 31 Mar 14:55:19 15:00:31 31° 176° (S) 15:05:45 437.505
ITAMSAT 1 31 Mar 15:19:56 15:25:09 75° 258° (WSW) 15:30:23 435.822/435.867
YUBILEINY 31 Mar 15:26:04 15:34:14 40° 283° (WNW) 15:42:19 435.215
HORYU 2 31 Mar 15:26:32 15:29:20 17° 71° (ENE) 15:32:19 437.375
AIST 1 31 Mar 15:28:28 15:32:02 26° 78° (ENE) 15:35:39
ITUPSAT 1 31 Mar 15:35:07 15:39:41 44° 286° (WNW) 15:44:11 437.325
PCSat 31 Mar 15:36:33 15:41:27 33° 301° (WNW) 15:46:18 145.827
AO-7 31 Mar 15:39:45 15:46:28 30° 65° (ENE) 15:53:24 29.400- 29.500
O/OREOS (USA 219) 31 Mar 15:50:31 15:53:40 18° 258° (WSW) 15:56:38 437.305
KKS-1 31 Mar 15:55:39 15:59:58 51° 100° (E) 16:04:19 437.445
SRMSAT 31 Mar 15:58:50 16:03:55 29° 173° (S) 16:09:00 437.500
STARS 31 Mar 16:22:12 16:26:35 66° 101° (E) 16:30:58 437.465
Gurwin Techsat 1B 31 Mar 16:23:38 16:27:44 22° 265° (W) 16:31:41 435.225
SWISSCUBE 31 Mar 16:24:17 16:26:15 12° 292° (WNW) 16:27:56 437.505
BEESAT 31 Mar 16:26:43 16:28:49 12° 291° (WNW) 16:30:38 436.000
JUGNU 31 Mar 16:44:01 16:49:08 29° 186° (S) 16:54:14 437.505
JAS-2 31 Mar 16:47:03 16:53:42 64° 74° (ENE) 17:01:09 435.910
HORYU 2 31 Mar 17:01:50 17:05:47 31° 263° (W) 17:09:42 437.375
AIST 1 31 Mar 17:06:42 17:09:31 17° 270° (W) 17:12:08
AO-7 31 Mar 17:30:55 17:38:57 51° 258° (WSW) 17:46:55 29.400- 29.500
KKS-1 31 Mar 17:34:59 17:36:15 11° 291° (WNW) 17:37:13 437.445
MOZHAYETS 4 31 Mar 17:47:15 17:51:42 46° 98° (E) 17:56:09
SRMSAT 31 Mar 17:47:28 17:52:41 31° 183° (S) 17:57:52 437.500
CUTE-I 31 Mar 18:00:16 18:03:36 17° 69° (ENE) 18:07:08 437.470
Cubesat XI-IV 31 Mar 18:01:04 18:04:30 18° 69° (ENE) 18:08:09 437.490
M-CUBED/EXP-1 PRIME 31 Mar 18:06:41 18:10:19 22° 98° (E) 18:13:58 437.505
SO-50 31 Mar 18:25:19 18:29:40 48° 114° (ESE) 18:34:12 436.795
RS-15 31 Mar 18:27:15 18:37:12 44° 109° (ESE) 18:47:22 29.354- 29.394
JUGNU 31 Mar 18:33:40 18:37:42 18° 195° (SSW) 18:41:38 437.505
JAS-2 31 Mar 18:34:50 18:39:28 18° 272° (W) 18:43:59 435.910
BEESAT 3 31 Mar 19:10:23 19:13:27 20° 55° (NE) 19:16:34 437.485
AUBIESAT-1 31 Mar 19:13:55 19:18:42 68° 288° (WNW) 19:23:14 437.475
MOZHAYETS 4 31 Mar 19:26:21 19:28:35 13° 290° (WNW) 19:30:32
PRISM 31 Mar 19:28:44 19:32:18 28° 97° (E) 19:35:53 437.425
SRMSAT 31 Mar 19:36:53 19:41:24 22° 193° (SSW) 19:45:51 437.500
CUTE-I 31 Mar 19:38:14 19:43:21 45° 261° (W) 19:48:29 437.470
Cubesat XI-IV 31 Mar 19:39:11 19:44:18 44° 261° (W) 19:49:24 437.490
M-CUBED/EXP-1 PRIME 31 Mar 19:40:58 19:45:12 30° 292° (WNW) 19:49:13 437.505
CUBESAT XI-V 31 Mar 19:41:01 19:45:34 58° 100° (E) 19:50:05 437.345
GONETS M04 31 Mar 19:43:13 19:51:37 58° 92° (E) 20:00:08
STRAND 1 31 Mar 19:49:14 19:53:48 34° 97° (E) 19:58:25 437.568
BRITE-PL 31 Mar 20:01:15 20:02:31 11° 72° (ENE) 20:04:06 437.365/2234.400
AIST 2 31 Mar 20:02:17 20:05:32 22° 55° (NE) 20:08:49 435.215
SO-50 31 Mar 20:07:46 20:10:33 15° 310° (NW) 20:13:13 436.795
BEESAT 2 31 Mar 20:13:22 20:17:29 82° 244° (WSW) 20:21:31 435.950
GOMX 1 31 Mar 20:33:51 20:36:35 17° 73° (ENE) 20:39:25 467.674
HO-68 31 Mar 20:35:17 20:41:17 31° 68° (ENE) 20:47:28 435.675
RS-15 31 Mar 20:39:20 20:49:35 43° 307° (NW) 20:59:48 29.354- 29.394
BEESAT 3 31 Mar 20:48:08 20:51:28 24° 249° (WSW) 20:54:40 437.485
CANX-2 31 Mar 20:50:00 20:53:15 23° 73° (ENE) 20:56:38 2200.000
CUTE 1.7 + AOD 2 31 Mar 21:03:08 21:06:46 29° 74° (ENE) 21:10:30 437.475
PRISM 31 Mar 21:04:54 21:07:36 16° 289° (WNW) 21:10:06 437.425
CINEMA 3 31 Mar 21:10:09 21:11:50 13° 71° (ENE) 21:13:45 145.822/145.860
ISS 31 Mar 21:16:49 21:19:40 28° 129° (SE) 21:22:32 145.825
AAUSAT CUBESAT 2 31 Mar 21:18:12 21:21:34 25° 73° (ENE) 21:25:03 437.432
CUBESAT XI-V 31 Mar 21:22:03 21:22:34 10° 291° (WNW) 21:22:46 437.345
SEEDS 31 Mar 21:28:09 21:32:12 50° 76° (ENE) 21:36:19 437.485
STRAND 1 31 Mar 21:29:00 21:32:49 21° 290° (WNW) 21:36:27 437.568
DANDE 31 Mar 21:31:54 21:35:13 74° 98° (E) 21:37:58 436.750
BRITE-PL 31 Mar 21:36:11 21:40:51 50° 260° (W) 21:45:11 437.365/2234.400
AIST 2 31 Mar 21:40:38 21:44:05 24° 249° (WSW) 21:47:24 435.215
GONETS M04 31 Mar 21:42:15 21:49:03 24° 289° (WNW) 21:55:28
COMPASS 1 31 Mar 21:46:35 21:50:44 71° 77° (ENE) 21:54:55 437.405
DOVE 4 31 Mar 21:46:37 21:51:01 85° 78° (ENE) 21:55:14 437.250
Oscar 11 31 Mar 22:01:57 22:05:57 39° 75° (ENE) 22:09:59 145.826/435.025
GOMX 1 31 Mar 22:10:33 22:14:36 30° 262° (W) 22:18:24 467.674
CUSAT 1 31 Mar 22:11:16 22:12:45 13° 281° (WNW) 22:14:03 437.405
DELFI C3 31 Mar 22:16:43 22:20:33 43° 75° (ENE) 22:24:27 145.870
FUNcube-1 31 Mar 22:18:13 22:21:41 27° 74° (ENE) 22:25:14 145.935
HO-68 31 Mar 22:22:12 22:28:51 40° 261° (W) 22:35:27 435.675
CANX-2 31 Mar 22:25:52 22:29:08 21° 265° (W) 22:32:19 2200.000
UWE-3 31 Mar 22:28:48 22:32:47 50° 76° (ENE) 22:36:49 435.000/436.395/437.385
ZACube-1 31 Mar 22:31:39 22:35:33 42° 75° (ENE) 22:39:29 437.345
VELOX 1 31 Mar 22:38:58 22:41:32 16° 71° (ENE) 22:44:18 145.980
CUBEBUG 2 31 Mar 22:39:08 22:43:18 88° 83° (E) 22:47:27 437.445
CUTE 1.7 + AOD 2 31 Mar 22:40:04 22:42:46 16° 267° (W) 22:45:18 437.475
AISAT 31 Mar 22:44:18 22:47:20 19° 72° (ENE) 22:50:32 437.250
CINEMA 3 31 Mar 22:44:54 22:48:49 36° 262° (W) 22:52:39 145.822/145.860
ISS 31 Mar 22:53:45 22:56:06 18° 323° (NW) 22:58:24 145.825
AAUSAT CUBESAT 2 31 Mar 22:54:13 22:57:12 18° 266° (W) 23:00:03 437.432
UNISAT 6 31 Mar 22:57:39 22:59:53 14° 92° (E) 23:02:25 437.425
HUMSAT D 31 Mar 23:01:52 23:05:46 46° 76° (ENE) 23:09:43 437.325/437.525
TIGRISAT 31 Mar 23:06:03 23:08:58 17° 94° (E) 23:12:07 435.000
UKube-1 31 Mar 23:08:59 23:13:20 87° 257° (WSW) 23:17:41 .
50 SAT 31 Mar 23:18:05 23:21:48 45° 76° (ENE) 23:25:35 437.505
QB50P2 31 Mar 23:21:25 23:22:21 11° 92° (E) 23:23:34 145.880/145.840
ESTCUBE 1 31 Mar 23:21:57 23:25:36 25° 72° (ENE) 23:29:22 437.505/2401.250
DX 1 31 Mar 23:22:50 23:27:06 54° 260° (W) 23:31:23 434.975-435.025
ANTELSAT 31 Mar 23:36:33 23:40:56 41° 99° (E) 23:45:23 437.575/2403.000
Oscar 11 31 Mar 23:40:23 23:42:20 12° 268° (W) 23:44:02 145.826/435.025
POPSAT HIP 1 31 Mar 23:47:24 23:50:48 24° 96° (E) 23:54:16 437.405
YUBILEINY 31 Mar 23:52:01 23:53:12 11° 64° (ENE) 23:55:20 435.215
FUNcube-1 31 Mar 23:55:26 23:58:05 16° 266° (W) 00:00:34 145.935
NANOSAT C BR1 31 Mar 23:56:36 00:00:21 31° 98° (E) 00:04:08 145.865
POLYITAN 1 01 Apr 00:03:06 00:07:04 39° 99° (E) 00:11:05 437.675
CUBEBUG 1 01 Apr 00:05:32 00:09:56 76° 78° (ENE) 00:14:20 437.445
SPROUT 01 Apr 00:06:14 00:08:44 16° 71° (ENE) 00:11:25 437.525
ZACube-1 01 Apr 00:11:39 00:12:12 10° 269° (W) 00:12:27 437.345
VELOX 1 01 Apr 00:13:48 00:17:52 34° 262° (W) 00:21:54 145.980
AISAT 01 Apr 00:19:55 00:23:48 28° 263° (W) 00:27:35 437.250
PCSat 01 Apr 00:29:52 00:35:11 54° 63° (ENE) 00:40:28 145.827
UNISAT 6 01 Apr 00:32:29 00:36:53 42° 285° (WNW) 00:41:17 437.425
QB50P1 01 Apr 00:38:31 00:42:44 72° 283° (WNW) 00:46:57 145.935-145.965
DUCHIFAT 1 01 Apr 00:38:47 00:42:59 73° 283° (WNW) 00:47:12 145.980
TIGRISAT 01 Apr 00:41:37 00:45:49 34° 286° (WNW) 00:50:00 435.000
QB50P2 01 Apr 00:54:28 00:58:30 43° 285° (WNW) 01:02:32 145.880/145.840
ESTCUBE 1 01 Apr 00:58:50 01:02:27 22° 265° (W) 01:05:55 437.505/2401.250
BUGSAT 1 01 Apr 01:07:29 01:11:18 42° 285° (WNW) 01:15:07 437.445
ANTELSAT 01 Apr 01:14:44 01:17:26 15° 289° (WNW) 01:19:56 437.575/2403.000
TISAT 1 01 Apr 01:19:51 01:24:04 70° 259° (WSW) 01:28:16 437.305
POPSAT HIP 1 01 Apr 01:23:24 01:26:34 20° 288° (WNW) 01:29:37 437.405
NANOSAT C BR1 01 Apr 01:33:22 01:35:59 16° 289° (WNW) 01:38:24 145.865
POLYITAN 1 01 Apr 01:40:42 01:42:42 13° 289° (WNW) 01:44:29 437.675
SPROUT 01 Apr 01:40:45 01:44:36 31° 263° (W) 01:48:25 437.525
YUBILEINY 01 Apr 01:42:55 01:51:44 78° 83° (E) 02:00:29 435.215
SWISSCUBE 01 Apr 01:45:07 01:49:17 31° 73° (ENE) 01:53:32 437.505
BEESAT 01 Apr 01:47:38 01:51:45 30° 73° (ENE) 01:55:57 436.000
